GHGSAT-C2 (47509 NORAD) Tracking and Keplerian Element Data

This shows tracking and keplerian element data for the satellite.

Feedback or suggestion? Click here.




ElementValue
Catalog47509
NameGHGSAT-C2
Epoch Orbit1262
Epoch Day106.13554417
Epoch Year2021
RAAN168.2886
Inclination97.4882
Eccentricity0.0008229
Argument of Perigee331.3243
Mean Anonmoly28.7534
Mean Motion15.12009696
Decay Rate4.4E-06
L11 47509U 21006DA 21106.13554417 .00000440 00000-0 29349-4 0 9993
L22 47509 97.4882 168.2886 0008229 331.3243 28.7534 15.12009696 12623

Live tracking and technical data element details for GHGSAT-C2 (NORAD 47509). GHGSAT-C2 can be tracked NOW for your location showing map with azimuth and elevation plus other details from your city location.

Track the satellite on the map from your city or location and see movement details for azimuth, elevation, latitude, longitude, range, height, and movement on the map or in text.







IsCatalogInMostPopularTable: catalog: 47509, numindb: 15
Update: records affected: 1



GetName: 47509 GHGSAT-C2

Hit Count: updated at: Fri, 16 Apr 2021 10:30:09 GMT